User: anonymous   Login
Location: Brno
(49.2000°N, 16.6330°E)
Time: 23:47:50
(UTC+02:00)
Language:

RESURS DK-1 - Orbit

View from above orbital plane
View from above orbital plane
View from above satellite
View from above satellite

Ground track
Ground track

The orbit data is extracted from the following two-line orbital elements,

1 29228U 06021A   17230.43514357  .00000126  00000-0  17001-4 0  9999
2 29228  69.9358 299.7049 0007634 256.1503 103.8809 15.02183998617444
Epoch (UTC): 18 August 2017 10:26:36
Eccentricity: 0.0007634
inclination: 69.9358°
perigee height: 555 km
apogee height: 565 km
right ascension of ascending node: 299.7049°
argument of perigee: 256.1503°
revolutions per day: 15.02183998
mean anomaly at epoch: 103.8809°
orbit number at epoch: 61744

The dashed part of the orbit path shows where the satellite is in the earth's shadow,  

DLR